This is the latest recevied weather packets stored in our database for station/object KC9DRE. If no packets are shown the sender has not sent any weather packets the latest 10 day(s).
| Time | Temp. | Humidity | Pressure | Rain* | Wind** | Luminosity | Snow |
|---|---|---|---|---|---|---|---|
| 1788109202 | 32.22° C | 54% | 1021.1 hPa | 0 mm | - | 784 W/m² | - |
| 1788108898 | 32.78° C | 52% | 1021 hPa | 0 mm | - | 653 W/m² | - |
| 1788108594 | 32.78° C | 54% | 1021.1 hPa | 0 mm | - | 814 W/m² | - |
| 1788108289 | 32.78° C | 53% | 1021.1 hPa | 0 mm | - | 815 W/m² | - |
| 1788107986 | 32.78° C | 52% | 1021.2 hPa | 0 mm | - | 719 W/m² | - |
| 1788107682 | 32.78° C | 55% | 1021.3 hPa | 0 mm | - | 779 W/m² | - |
| 1788107381 | 32.78° C | 53% | 1021.2 hPa | 0 mm | - | 765 W/m² | - |
| 1788107077 | 32.22° C | 54% | 1021 hPa | 0 mm | - | 756 W/m² | - |
| 1788106777 | 32.22° C | 53% | 1021.2 hPa | 0 mm | - | 746 W/m² | - |
| 1788106477 | 32.78° C | 53% | 1021.1 hPa | 0 mm | - | 740 W/m² | - |
| 1788106172 | 32.22° C | 56% | 1020.9 hPa | 0 mm | - | 730 W/m² | - |
| 1788105869 | 32.22° C | 56% | 1021 hPa | 0 mm | - | 668 W/m² | - |
| 1788105569 | 32.22° C | 56% | 1021.2 hPa | 0 mm | - | 655 W/m² | - |
| 1788105266 | 32.22° C | 56% | 1021.1 hPa | 0 mm | - | 709 W/m² | - |
| 1788104960 | 32.78° C | 58% | 1021 hPa | 0 mm | - | 710 W/m² | - |
| 1788104656 | 32.22° C | 58% | 1020.9 hPa | 0 mm | - | 643 W/m² | - |
| 1788104353 | 32.22° C | 58% | 1021 hPa | 0 mm | - | 668 W/m² | - |
| 1788104048 | 31.67° C | 57% | 1021.1 hPa | 0 mm | - | 670 W/m² | - |
| 1788103747 | 31.67° C | 59% | 1020.9 hPa | 0 mm | - | 660 W/m² | - |
| 1788103442 | 31.11° C | 63% | 1021 hPa | 0 mm | - | 635 W/m² | - |
| 1788103136 | 31.11° C | 59% | 1020.9 hPa | 0 mm | - | 539 W/m² | - |
| 1788102835 | 31.67° C | 59% | 1020.9 hPa | 0 mm | - | 594 W/m² | - |
| 1788102530 | 31.67° C | 57% | 1020.9 hPa | 0 mm | - | 588 W/m² | - |
| 1788102230 | 31.67° C | 56% | 1020.8 hPa | 0 mm | - | 586 W/m² | - |
| 1788101924 | 31.67° C | 58% | 1020.8 hPa | 0 mm | - | 452 W/m² | - |
* Rain latest hour (hover to see other rain measurements)
** Current wind speed in m/s (hover to see current wind gust speed)